Location: Dompnac
(44.5644°N, 4.1026°E)
Time: 23:19:13
(UTC+00:00)

Cosmos 1626 - Pass Details

Date: 17 January 2021
Orbit: 490 x 494 km, 82.5° (Epoch: 25 February)

Event Time Altitude Azimuth Distance (km) Brightness Sun altitude
Rises 17:42:18 0° 199° (SSW) 2,564 6.3 -12.3°
Reaches altitude 10° 17:44:26 10° 204° (SSW) 1,687 5.4 -12.7°
Maximum altitude 17:48:02 51° 281° (W) 633 3.0 -13.3°
Drops below altitude 10° 17:51:40 10° 359° (N) 1,699 4.7 -13.9°
Sets 17:53:50 0° 4° (N) 2,586 5.6 -14.3°
